DJ6OI-23 Weather Reports


time (UTC)temp
C
wind
direction
speed
KPH
gust
KPH
rain 1hr
cm
rain 24hr
cm
rain mn
cm
humidity
%
barometer
mb
20260905133710 21 0.0 0.0 0.00 0.00 0.00 55 999.5
20260905132135 24 0.0 0.0 0.00 0.00 0.00 51 999.5
20260905130600 22 0.0 0.0 0.00 0.00 0.00 54 999.6
20260905125025 22 0.0 0.0 0.00 0.00 0.00 54 999.5
20260905123450 21 0.0 0.0 0.00 0.00 0.00 57 999.4
20260905121915 21 0.0 0.0 0.00 0.00 0.00 57 999.4
20260905120340 22 0.0 0.0 0.00 0.00 0.00 57 999.4
20260905114805 23 0.0 0.0 0.00 0.00 0.00 55 999.3
20260905113231 22 0.0 0.0 0.00 0.00 0.00 58 999.2
20260905111656 22 0.0 0.0 0.00 0.00 0.00 60 999.0
20260905110121 23 0.0 0.0 0.00 0.00 0.00 57 999.1
20260905104546 22 0.0 0.0 0.00 0.00 0.00 62 999.0
20260905103011 22 0.0 0.0 0.00 0.00 0.00 63 999.0
20260905101436 23 0.0 0.0 0.00 0.00 0.00 63 998.9
20260905095901 23 0.0 0.0 0.00 0.00 0.00 66 998.9
20260905094326 22 0.0 0.0 0.00 0.00 0.00 71 998.8
20260905092752 22 0.0 0.0 0.00 0.00 0.00 74 998.8
20260905091216 22 0.0 0.0 0.00 0.00 0.00 74 998.7
20260905085641 20 0.0 0.0 0.00 0.00 0.00 76 998.8
20260905084106 21 0.0 0.0 0.00 0.00 0.00 81 998.5
20260905082532 20 0.0 0.0 0.00 0.00 0.00 85 998.5
20260905080957 20 0.0 0.0 0.00 0.00 0.00 86 998.3
20260905075422 20 0.0 0.0 0.00 0.00 0.00 87 998.0
20260905073847 20 0.0 0.0 0.00 0.00 0.00 91 997.9
20260905072312 17 0.0 0.0 0.00 0.00 0.00 10 997.8
20260905070737 16 0.0 0.0 0.00 0.00 0.00 10 997.8
20260905065202 16 0.0 0.0 0.00 0.00 0.00 10 997.6
20260905063627 16 0.0 0.0 0.00 0.00 0.00 10 997.5
20260905062052 15 0.0 0.0 0.00 0.00 0.00 10 997.5
20260905060517 15 0.0 0.0 0.00 0.00 0.00 10 997.4
20260905054942 15 0.0 0.0 0.00 0.00 0.00 10 997.4
20260905053408 13 0.0 0.0 0.00 0.00 0.00 10 997.5
20260905051833 12 0.0 0.0 0.00 0.00 0.00 10 997.0
20260905050258 12 0.0 0.0 0.00 0.00 0.00 10 996.9
20260905044723 12 0.0 0.0 0.00 0.00 0.00 10 996.8
20260905043148 12 0.0 0.0 0.00 0.00 0.00 10 996.5
20260905041613 12 0.0 0.0 0.00 0.00 0.00 10 996.4
20260905040038 12 0.0 0.0 0.00 0.00 0.00 10 996.4
20260905034504 12 0.0 0.0 0.00 0.00 0.00 10 996.3
20260905032928 12 0.0 0.0 0.00 0.00 0.00 10 996.1
20260905025818 12 0.0 0.0 0.00 0.00 0.00 10 995.9
20260905024243 12 0.0 0.0 0.00 0.00 0.00 10 995.8
20260905022709 13 0.0 0.0 0.00 0.00 0.00 10 995.8
20260905021134 13 0.0 0.0 0.00 0.00 0.00 10 995.9
20260905015559 13 0.0 0.0 0.00 0.00 0.00 10 995.8
20260905014024 13 0.0 0.0 0.00 0.00 0.00 10 995.6
20260905012449 13 0.0 0.0 0.00 0.00 0.00 10 995.6
20260905010914 14 0.0 0.0 0.00 0.00 0.00 10 995.5
20260905005339 14 0.0 0.0 0.00 0.00 0.00 10 995.5
20260905003804 14 0.0 0.0 0.00 0.00 0.00 10 995.5
20260905002229 13 0.0 0.0 0.00 0.00 0.00 10 995.4
20260905000654 13 0.0 0.0 0.00 0.00 0.00 10 995.4
20260904235119 14 0.0 0.0 0.00 0.00 0.00 10 995.3
20260904233545 15 0.0 0.0 0.00 0.00 0.00 10 995.2
20260904230435 15 0.0 0.0 0.00 0.00 0.00 10 994.9
20260904224900 15 0.0 0.0 0.00 0.00 0.00 10 994.6
20260904223325 15 0.0 0.0 0.00 0.00 0.00 10 994.5
20260904221750 15 0.0 0.0 0.00 0.00 0.00 10 994.2
20260904220215 15 0.0 0.0 0.00 0.00 0.00 10 994.0
20260904213105 16 0.0 0.0 0.00 0.00 0.00 10 993.6
20260904211530 16 0.0 0.0 0.00 0.00 0.00 10 993.4
20260904205955 15 0.0 0.0 0.00 0.00 0.00 10 993.3
20260904204421 15 0.0 0.0 0.00 0.00 0.00 10 993.1
20260904202846 15 0.0 0.0 0.00 0.00 0.00 10 993.0
20260904201311 15 0.0 0.0 0.00 0.00 0.00 10 992.9
20260904195736 15 0.0 0.0 0.00 0.00 0.00 10 992.7
20260904194201 15 0.0 0.0 0.00 0.00 0.00 10 992.8
20260904192626 15 0.0 0.0 0.00 0.00 0.00 10 992.6
20260904191051 15 0.0 0.0 0.00 0.00 0.00 10 992.5
20260904185516 15 0.0 0.0 0.00 0.00 0.00 10 992.3
20260904183941 15 0.0 0.0 0.00 0.00 0.00 10 992.1
20260904182406 16 0.0 0.0 0.00 0.00 0.00 10 991.9
20260904180831 16 0.0 0.0 0.00 0.00 0.00 10 991.9
20260904175256 16 0.0 0.0 0.00 0.00 0.00 10 991.5
20260904173722 16 0.0 0.0 0.00 0.00 0.00 10 991.1
20260904172147 17 0.0 0.0 0.00 0.00 0.00 10 991.0
20260904170612 17 0.0 0.0 0.00 0.00 0.00 10 991.3
20260904165037 17 0.0 0.0 0.00 0.00 0.00 97 990.7
20260904163502 17 0.0 0.0 0.00 0.00 0.00 91 990.7
20260904161927 19 0.0 0.0 0.00 0.00 0.00 78 990.2
20260904160352 21 0.0 0.0 0.00 0.00 0.00 68 989.3
20260904154817 23 0.0 0.0 0.00 0.00 0.00 61 989.0
20260904153242 24 0.0 0.0 0.00 0.00 0.00 60 988.8
20260904151707 25 0.0 0.0 0.00 0.00 0.00 57 988.9
20260904150132 25 0.0 0.0 0.00 0.00 0.00 56 989.0
20260904144558 27 0.0 0.0 0.00 0.00 0.00 53 989.0
20260904143023 28 0.0 0.0 0.00 0.00 0.00 52 988.9
20260904141448 29 0.0 0.0 0.00 0.00 0.00 50 989.0
20260904135913 30 0.0 0.0 0.00 0.00 0.00 50 989.2